www.pogodaiklimat.ru

Погода и климат >> Архив погоды >> Бангладеш >> Хатия


ПОГОДА в Хатии

  • Прогноз погоды в Хатии
  • Монитор погоды в Хатии

АРХИВ ПОГОДЫ в Хатии

Время (UTC), дата Ветер
(напр.,м/с)
 
Видим.   Явления Облачность Т
(С)
Тd
(С)
f
(%)
Тe
(С)
Тes
(С)
Комфортность P
(гПа)
Po
(гПа)
Тmin
(С)
Tmax
(С)
R
(мм)
R24
(мм)
S
(см)
00 16.09 штиль 0 2000 м дымка 6/3 540 м
[Sc As trans]
+27.0 +27.0 100 +42 +42 опасность
перегрева
1005.8 1005.5
03 16.09 ЮВ 1 6000 м 5/3 540 м
[Sc As trans]
+31.5 +28.0 82 +52 +59 опасность
перегрева
1007.3 1007.0 +26.5
06 16.09 В 1 6000 м 6/4 540 м
[Sc As trans]
+32.3 +27.0 74 +50 +61 опасность
перегрева
1006.5 1006.3
09 16.09 Ю 1 6000 м 3/3 540 м
[Sc]
+32.0 +27.0 75 +50 +58 опасность
перегрева
1004.0 1003.8
12 16.09 Ю 1 4000 м мгла 6/3 540 м
[Sc Ac trans]
+30.5 +28.0 87 +51 +51 опасность
перегрева
1003.5 1003.3 +33.0
15 16.09 штиль 0 4000 м мгла 6/0
[Ac trans]
+28.0 +27.0 94 +44 +44 опасность
перегрева
1006.4 1006.2
18 16.09 штиль 0 4000 м мгла ясно +27.5 +27.5 100 +44 +44 опасность
перегрева
1006.7 1006.5
21 16.09 штиль 0 3000 м мгла ясно +27.0 +27.0 100 +42 +42 опасность
перегрева
1006.2 1006.0
00 17.09 штиль 0 2500 м дымка 3/3 540 м
[Sc]
+26.5 +26.5 100 +40 +40 очень
душно
1006.2 1006.0
03 17.09 Ю 1 5000 м мгла 3/3 540 м
[Sc]
+31.0 +28.0 84 +51 +60 опасность
перегрева
1008.0 1007.8 +26.0
06 17.09 Ю 1 6000 м 3/3 540 м
[Sc]
+32.0 +27.0 75 +50 +67 опасность
перегрева
1007.4 1007.2
09 17.09 штиль 0 4000 м в посл. час дождь {гроза} 10/6 300 м
[St As op]
+26.4 +25.0 92 +38 +39 очень
душно
1006.5 1002.2
12 17.09 штиль 0 6000 м 3/3 540 м
[Sc]
+31.0 +28.0 84 +51 +51 опасность
перегрева
1005.6 1005.3 +34.0
15 17.09 штиль 0 3000 м мгла ясно +28.6 +28.0 97 +47 +47 опасность
перегрева
1007.6 1007.3
18 17.09 штиль 0 3000 м мгла ясно +28.0 +27.0 94 +44 +44 опасность
перегрева
1007.8 1007.6
00 18.09 штиль 0 3000 м мгла 6/3 480 м
[Sc As trans]
+27.0 +26.0 94 +40 +40 очень
душно
1008.7 1008.5
03 18.09 ЮВ 1 6000 м 6/3 540 м
[Sc As trans]
+30.7 +27.0 81 +48 +54 опасность
перегрева
1010.6 1010.3 +26.8
06 18.09 В 1 7000 м 4/1 540 м
[Sc Ac trans]
+33.2 +28.0 74 +54 +71 опасность
перегрева
1010.0 1009.7
09 18.09 Ю 1 6000 м ясно +34.0 +26.0 63 +50 +61 опасность
перегрева
1007.7 1007.4
12 18.09 штиль 0 4000 м мгла 4/0
[Ci fib]
+32.0 +29.0 84 +55 +55 опасность
перегрева
1007.5 1007.2 +34.5
15 18.09 штиль 0 3000 м мгла ясно +28.3 +28.0 98 +47 +47 опасность
перегрева
1010.0 1009.7
18 18.09 штиль 0 3000 м мгла 5/0
[Ac trans]
+27.6 +27.6 100 +45 +45 опасность
перегрева
1010.4 1010.1
21 18.09 штиль 0 3000 м мгла 5/0
[Ac trans]
+27.2 +27.2 100 +43 +43 опасность
перегрева
1010.2 1009.9
00 19.09 штиль 0 2000 м дымка 3/3 540 м
[Sc]
+27.1 +27.1 100 +43 +43 опасность
перегрева
1010.0 1009.7
03 19.09 штиль 0 4000 м мгла 4/4 540 м
[Cu Sc]
+31.0 +28.0 84 +51 +59 опасность
перегрева
1010.7 1010.4
06 19.09 Ю 1 6000 м 4/3 540 м
[Cu Sc]
+33.4 +26.0 65 +49 +64 опасность
перегрева
1009.4 1009.1
09 19.09 СЗ 1 7000 м 4/4 540 м
[Sc]
+34.6 +29.0 73 +58 +65 опасность
перегрева
1006.9 1006.6
12 19.09 З 1 5000 м 4/1 540 м
[Sc Ci fib]
+31.0 +28.0 84 +51 +51 опасность
перегрева
1007.1 1006.8 +35.2
15 19.09 З 1 3000 м зарница 5/3 600 м
[Cb calv As trans]
+29.4 +28.0 92 +49 +49 опасность
перегрева
1009.5 1009.2
18 19.09 Ю 1 3000 м гроза без осадков 10/4 240 м
[Cb cap As op]
+27.0 +26.0 94 +40 +40 очень
душно
1009.8 1009.5
00 20.09 штиль 0 3000 м мгла 9/3 540 м
[Sc As trans]
+27.0 +26.0 94 +40 +40 очень
душно
1008.8 1008.6
03 20.09 штиль 0 4000 м мгла 8/3 540 м
[Sc As trans]
+30.5 +29.0 92 +53 +59 опасность
перегрева
1010.0 1009.7 +26.0
06 20.09 Ю 1 5000 м мгла 8/3 540 м
[Sc As trans]
+31.5 +29.0 87 +55 +64 опасность
перегрева
1008.8 1008.5
09 20.09 СЗ 1 6000 м 8/3 480 м
[Sc As trans]
+33.5 +29.0 77 +57 +61 опасность
перегрева
1005.4 1005.2
12 20.09 штиль 0 5000 м 3/3 540 м
[Sc]
+29.4 +27.0 87 +46 +46 опасность
перегрева
1005.6 1005.3 +34.3
15 20.09 штиль 0 3000 м мгла ясно +27.5 +27.0 97 +43 +43 опасность
перегрева
1007.7 1007.4
18 20.09 Ю 1 3000 м мгла ясно +27.5 +27.0 97 +43 +43 опасность
перегрева
1008.2 1007.9
00 21.09 штиль 0 3000 м мгла 10/3 540 м
[Sc As trans]
+27.5 +27.5 100 +44 +44 опасность
перегрева
1006.1 1005.8
03 21.09 ЮВ 1 3000 м гроза, ливневой дождь 10/4 210 м
[Cb cap As op]
+25.7 +25.7 100 +38 +39 очень
душно
1009.6 1009.4 +25.4
06 21.09 ЮЗ 1 4000 м мгла {гроза, дождь} 10/3 480 м
[Sc As op]
+28.3 +26.0 87 +42 +46 опасность
перегрева
1007.8 1007.5 4
09 21.09 З 1 6000 м 6/0
[Ci fib]
+32.5 +28.0 77 +53 +63 опасность
перегрева
1005.7 1005.5
12 21.09 Ю 1 4000 м мгла 8/3 540 м
[Sc As trans]
+29.5 +28.0 92 +49 +49 опасность
перегрева
1005.8 1005.5 +33.0
15 21.09 штиль 0 2000 м дымка ясно +27.4 +27.4 100 +44 +44 опасность
перегрева
1008.6 1008.4
18 21.09 штиль 0 1500 м дымка ясно +27.0 +27.0 100 +42 +42 опасность
перегрева
1007.7 1007.4
21 21.09 штиль 0 1500 м дымка ясно +27.0 +27.0 100 +42 +42 опасность
перегрева
1007.8 1007.5
00 22.09 штиль 0 2000 м дымка 8/3 540 м
[Sc As trans]
+26.7 +26.7 100 +41 +41 опасность
перегрева
1009.1 1008.9
03 22.09 штиль 0 5000 м мгла ясно +31.5 +27.0 77 +49 +62 опасность
перегрева
1010.3 1010.0 +25.5
06 22.09 штиль 0 6000 м ясно +33.0 +27.0 71 +51 +76 опасность
перегрева
1009.0 1008.7
09 22.09 ЮВ 1 7000 м 3/3 540 м
[Sc]
+33.8 +27.0 68 +52 +59 опасность
перегрева
1006.6 1006.3
12 22.09 штиль 0 4000 м мгла 8/3 480 м
[Sc As trans]
+30.2 +28.0 88 +50 +50 опасность
перегрева
1008.2 1007.9 +34.3
15 22.09 штиль 0 3000 м мгла 3/3 540 м
[Sc]
+28.5 +28.0 97 +47 +47 опасность
перегрева
1011.0 1010.7
18 22.09 штиль 0 3000 м мгла 10/3 540 м
[Sc As op]
+28.0 +28.0 100 +46 +46 опасность
перегрева
1011.3 1011.0

 

Местоположение метеостанции Хатия (Бангладеш): широта 22.43 долгота 91.10 высота над уровнем моря 4 м.

В архиве по умолчанию представлена погода в Хатии за последнюю неделю. Архивные данные за месяц целиком и за предыдущие месяцы, начиная с января 2011 года, Вы можете получить, выбрав интересующий диапазон дат из раскрывающегося списка и нажав кнопку "Ввод!".


*Определитесь, кто Вы:
робот инопланетянин человек

Внимание! Время в таблицах - всемирное. Для получения местного времени необходимо прибавить поправку, которая равна 6.5 ч.

Смотрите также архив погоды в соседних городах и на ближайших метеорологических станциях:

Погода в Сандвипе (Бангладеш) (34 км)
Погода в Маиидиcурте (Бангладеш) (49 км)
Погода в Бхоле (Бангладеш) (54 км)
Погода в Ситакунду (Бангладеш) (64 км)
Погода в Фени (Бангладеш) (74 км)
Погода в Читтагонге (Бангладеш) (76 км)
Погода в Патуакхали (Бангладеш) (80 км)
Погода в Барисале (Бангладеш) (83 км)
Погода в Чандпуре (Бангладеш) (102 км)
Погода в Кепупаре (Бангладеш) (103 км)

Пояснения к столбцам:

Ветер - указаны скорость ветра в м/с - средняя за 10 мин, порывы в срок и между сроками (в фигурных скобках) и направление, откуда дует ветер: С - северный, СВ - северо-восточный, В - восточный, ЮВ - юго-восточный, Ю - южный, ЮЗ - юго-западный, З - западный, СЗ - северо-западный.
Видимость - горизонтальная дальность видимости в метрах или километрах. При видимости от 1 до 10 км при отсутствии осадков обычно наблюдается дымка, при ухудшении видимости до 1 км и менее - туман. В сухую погоду видимость может ухудшаться дымом, пылью или мглою.
Явления - указаны атмосферные явления, наблюдавшиеся в срок или в последний час перед сроком; фигурными скобками обозначены явления, наблюдавшиеся между сроками (за 1-3 часа до срока); квадратными скобками обозначены град или гололедные отложения с указанием их диаметра в мм.
Облачность - указаны через наклонную черту общая и нижняя облачность в баллах и высота нижней границы облаков в метрах; квадратными скобками обозначены формы облаков: Ci - перистые, Cs - перисто-слоистые, Cc - перисто-кучевые, Ac - высококучевые, As - высокослоистые, Sc - слоисто-кучевые, Ns - слоисто-дождевые, Cu - кучевые, Cb - кучево-дождевые. Подробнее классификацию облаков см. в Атласе облаков (PDF).
T - Температура воздуха - температура, измеренная на высоте 2 м над землей.
Td - Температура точки росы - температура, при понижении до которой содержащийся в воздухе водяной пар достигнет насыщения.
f - Относительная влажность воздуха - влажноcть воздуха, измеренная на высоте 2 м над землей.
Te - Эффективная температура - температура, которую ощущает одетый по сезону человек в тени. Характеристика душности погоды. При расчете учитывается влияние влажности воздуха и скорости ветра на теплоощущения человека.
Tes - Эффективная температура на солнце - температура, которую ощущает человек, с поправкой на солнечный нагрев. Характеристика знойности погоды. Зависит от высоты солнца над горизонтом, облачности и скорости ветра. Ночью, в пасмурную погоду, а также при ветре 12 м/с и более поправка равна нулю.
P - Атмосферное давление - приведенное к уровню моря атмосферное давление.
Po - Атмосферное давление - измеренное на уровне метеостанции атмосферное давление.
Tmin - Минимальная температура - минимум температуры воздуха на высоте 2 м над землей.
Tmax - Максимальная температура - максимум температуры воздуха на высоте 2 м над землей.
R - Количество осадков - Количество выпавших осадков за период времени, мм. При наведении курсора мыши на число - период времени, за который выпало указанное количество осадков.
R24 - Количество осадков - Количество выпавших осадков за 24 часа, мм.
S - Снежный покров - Высота снежного покрова, см. При наведении курсора мыши на число - состояние снежного покрова и степень покрытия местности в баллах.